User: anonymous   Login
Location: Caltech
(34.1382°N, 118.1253°W)
Time: 12:13:01
(UTC-08:00)
Language:

Iridium 49 - Orbit

View from above orbital plane
View from above orbital plane
View from above satellite
View from above satellite

Ground track
Ground track

The orbit data is extracted from the following two-line orbital elements,

1 25108U 97082E   15064.54711578  .00000237  00000-0  77444-4 0  9998
2 25108 086.3926 244.2707 0001961 095.5295 342.8961 14.34219480900749
Epoch (UTC): 05 March 2015 13:07:50
Eccentricity: 0.0001961
inclination: 86.3926°
perigee height: 776 km
apogee height: 779 km
right ascension of ascending node: 244.2707°
argument of perigee: 95.5295°
revolutions per day: 14.34219480
mean anomaly at epoch: 342.8961°
orbit number at epoch: 90074

The dashed part of the orbit path shows where the satellite is in the earth's shadow,  

DLR